Regional Weather Roundup
Issued by NWS Wakefield, VA

Home | Current Version | Previous Version | Text Only | Print | Product List | Glossary On
Versions: 1 2 3 4 5 6 7 8 9 10 11 12 13 14 15 16 17 18 19 20 21 22 23 24 25 26 27 28 29 30 31 32 33 34 35 36 37 38 39 40 41 42 43 44 45 46 47 48 49 50
000
ASUS41 KAKQ 012010
RWRAKQ

REGIONAL WEATHER ROUNDUP
NATIONAL WEATHER SERVICE WAKEFIELD VA
300 PM EST SUN FEB 01 2015

Note: "fair" indicates few or no clouds below 12,000 feet with no
significant weather and/or obstructions to visibility. * = Denotes
station may not report precipitation (e.g., rain,snow,etc.),
thunder or fog.

VAZ042-051-052>054-056-012100-
NORTHERN VIRGINIA

CITY           SKY/WX    TMP DP  RH WIND       PRES   REMARKS
WASH NATIONAL  CLOUDY    42  16  34 S8        30.12F
DULLES         CLOUDY    41  14  33 S8        30.11F
FORT BELVOIR   PTSUNNY   41  15  35 S5        30.13F
QUANTICO       PTSUNNY   42  14  32 S5        30.13F
FREDERICKSBRG* CLOUDY    48  15  26 S10       30.11F
STAFFORD*      CLOUDY    45  11  25 CALM      30.15F
WARRENTON      PTSUNNY   45  23  42 S6        30.10F
CULPEPER*      CLOUDY    45  18  33 S6        30.10F
MANASSAS*      NOT AVBL
LEESBURG*      CLOUDY    41  21  45 SW10      30.10F
WINCHESTER     CLOUDY    41  14  33 E5        30.04S
FRONT ROYAL*   MOCLDY    41  21  45 CALM      30.03R
LURAY*         CLOUDY    45  25  45 E3        30.00F
$$

VAZ048-049-060>072-079>083-012100-
CENTRAL AND SOUTH CENTRAL VIRGINIA

CITY           SKY/WX    TMP DP  RH WIND       PRES   REMARKS
RICHMOND       CLOUDY    48  18  30 S10       30.12F
CHESTERFIELD*  FAIR      48  12  23 S10       30.12F
PETERSBURG*    CLOUDY    49  12  22 S3        30.13F
HANOVER        CLOUDY    46  16  30 S10       30.13F
TAPPAHANNOCK*  CLOUDY    47   9  20 S9        30.14F
QUINTON*       FAIR      47  19  32 S8        30.13F
CHARLOTTSVILLE CLOUDY    42  13  30 E5        30.06F
GORDONSVILLE*  FAIR      43  13  29 S5        30.07F
ORANGE*        CLOUDY    45  12  26 S7        30.10F
LOUISA*        CLOUDY    46  12  25 SE6       30.08F
BUMPASS*       FAIR      45  13  27 SE5       30.10F
FARMVILLE*     CLOUDY    53  13  20 SE6       30.06F
CREWE*         FAIR      50  12  22 SE9       30.08F
FORT PICKETT*  FAIR      50  16  26 SE8       30.09F
CHASE CITY*    FAIR      56  25  29 S8        30.07F
CLARKSVILLE*   FAIR      54  23  30 S9G17     30.08F
SOUTH HILL*    CLOUDY    52  21  30 S8        30.14F
LAWRENCEVILLE* FAIR      50  22  33 SE5       30.11F
EMPORIA*       CLOUDY    50  23  34 SE6       30.15F
$$

VAZ088>098-012100-
SOUTHEAST VIRGINIA

CITY           SKY/WX    TMP DP  RH WIND       PRES   REMARKS
NORFOLK        CLOUDY    48  25  40 SE12      30.16S
VIRGINIA BEACH CLOUDY    47  28  47 SE8       30.17F
NORFOLK NAVAL  CLOUDY    52  21  29 S8        30.17F
WEST POINT*    PTSUNNY   49  20  32 SE8       30.16F
SALUDA*        FAIR      42  21  42 SE8       30.16S
NEWPORT NEWS   CLOUDY    49  25  39 SE8       30.16F
LANGLEY AFB    CLOUDY    45  29  55 E9        30.16F
FORT EUSTIS    CLOUDY    47  26  43 S8        30.14F
WILLIAMSBURG*    N/A     50  28  43 SE8       30.16F
HR EXEC AP*    FAIR      48  19  32 SE7       30.18F
FRANKLIN*      PTSUNNY   48  18  30 S6        30.16F
WAKEFIELD      PTSUNNY   49  17  28 S3        30.15F
$$

VAZ020-022-025-037-045-012100-
WEST CENTRAL AND SOUTHWEST VIRGINIA

CITY           SKY/WX    TMP DP  RH WIND       PRES   REMARKS
STAUNTON*      CLOUDY    45  12  26 S10G16    30.02F
WAYNESBORO*    FAIR      40  11  31 SE13      30.00F
HOT SPRINGS VA CLOUDY    35   9  33 S8        29.92F
LYNCHBURG      CLOUDY    48  20  32 S14G20    30.06F
DANVILLE       CLOUDY    56  18  22 S15G24    30.07F
SOUTH BOSTON*  FAIR      56  18  22 SW12      30.08S
MARTINSVILLE   CLOUDY    54  21  28 SW7       30.08S
ROANOKE        CLOUDY    49  17  28 SE10      30.04F
BLACKSBURG     CLOUDY    45  17  32 S13G20    30.02F
DUBLIN*        CLOUDY    48  18  30 S9        30.00S
MARION*        CLOUDY    49  10  20 SE3       29.97F
HILLSVILLE*    CLOUDY    44  23  43 S14G24    29.99F
RICHLANDS*     CLOUDY    47  11  22 S10G18    29.92F
WISE*          CLOUDY    45  23  42 S17G25    29.89F
ABINGDON*      CLOUDY    52  19  27 SW6       29.93F
$$

MDZ021>025-VAZ099-100-012100-
SOUTHERN MARYLAND AND THE DELMARVA PENINSULA

CITY           SKY/WX    TMP DP  RH WIND       PRES   REMARKS
PATUXENT RIVER PTSUNNY   38  24  57 SE15      30.14F
BAY BRIDGE APT   N/A     37  19  48 SE9       30.15F
LEONARDTOWN    CLOUDY    41  12  30 S7        30.14F
DOVER          CLOUDY    40  19  42 E6        30.15F
GEORGETOWN     CLOUDY    42  17  36 S8        30.17F
EASTON         CLOUDY    41  19  42 S9        30.18F
CAMBRIDGE      CLOUDY    41  16  36 S10       30.15F
SALISBURY      PTSUNNY   46  18  32 S8        30.16F
OCEAN CITY     PTSUNNY   38  24  57 VRB6      30.19F
WALLOPS ISLAND PTSUNNY   39  24  55 S10       30.19F
ACCOMACK*      CLOUDY    41  21  45 SE9       30.17F
$$

NCZ012>017-030>032-012100-
NORTH CENTRAL AND EASTERN NORTH CAROLINA

CITY           SKY/WX    TMP DP  RH WIND       PRES   REMARKS
ROANOKE RAPIDS FAIR      52  23  32 S9        30.13F
RALEIGH        CLOUDY    55  20  25 SW12      30.12F
ELIZABETH CITY CLOUDY    49  23  36 S6        30.18F
AHOSKIE*       CLOUDY    52  24  32 S3        30.15F
EDENTON*       CLOUDY    49  28  43 E3        30.18S
CURRITUCK*     CLOUDY    49  18  29 S3        30.18F
KILL DEVIL HLS CLOUDY    47  24  39 S5        30.18F
MANTEO         CLOUDY    48  30  49 SE8       30.19F
CAPE HATTERAS  MOSUNNY   53  34  48 VRB3      30.21F
TARBORO*       FAIR      56  23  28 S10       30.16F
GOLDSBORO      CLOUDY    55  25  31 S6        30.13F
WASHINGTON     CLOUDY    53  21  28 S8        30.16F
GREENVILLE     CLOUDY    54  21  28 SW14      30.18F
NEW BERN       CLOUDY    57  21  24 SW10      30.19F
WILMINGTON     MOSUNNY   60  36  40 S14       30.17F
$$

VAZ048-012100-
ELSEWHERE

CITY           SKY/WX    TMP DP  RH WIND       PRES   REMARKS
HARRISBURG PA  CLOUDY    36  24  62 SE7       30.08F
BALTIMORE      PTSUNNY   38  17  42 VRB5      30.11F
ANNAPOLIS      CLOUDY    38  22  52 S8        30.13F
ANDREWS AFB    MOSUNNY   40  16  37 SE8       30.11F
PHILADELPHIA   CLOUDY    38  25  59 VRB3      30.16F
HENDERSON NC   CLOUDY    55  17  22 S7G16     30.09F
GREENSBORO     CLOUDY    53  20  27 SW15      30.08F
ROCKY MOUNT    MOSUNNY   54  20  26 S12       30.15F
$$

VAZ100-012100-
MARINE

STATION/POSITION TIME  TEMP    WIND        PRES    WAVE   SWELL
                       AIR SEA DIR/SP/G            HT/PER HT/PER
                 (UTC) (F)     (DEG/KT/KT) (MB)    (FT/S) (FT/S)
BRANDYWINE LGT   2000   34 35  150/  9/  9 1021.8F
CAPE MAY NJ      2000   36 34              1021.5F
LEWES DE         2000   38 35  140/  7/ 10 1021.5F
15NM E FENWICK I 2000   38 40              1022.3F   1/10
OCEAN-CITY-INLET 2000   37 35  200/ 10/ 12 1022.0S
WACHAPREAGUE VA  2000   39 34  180/  7/ 11 1022.1F
THOMAS POINT MD  2000   36 35  150/ 13/ 14 1021.2F
GOOSES REEF MD   2000   36     VRB 14/ 16  1019.9F
COVE POINT MD    2000   36     180/ 17/ 19 1020.8F
SOLOMONS ISLAND  2000      37                N/A
BISHOPS HEAD MD  2000   36 34  160/  9/ 11 1020.8F
PINEY POINT MD   2000          140/ 14/ 15   N/A
POTOMAC MD       2000   38     160/ 12/ 14 1020.3F
CAMBRIDGE MD     2000   41 33  200/  4/ 11 1020.7F
LEWISETTA VA     2000   40 34  150/ 12/ 15 1020.6R
RAPPAHANNOCK LGT 2000          150/ 13/ 13 1022.3R
STINGRAY PT      2000   38     170/  8/ 10 1022.2F
YORK RVR RNG VA  2000   39     130/ 12/ 13 1021.0F
YORKTOWN VA      2000   40 38  100/ 12/ 15 1021.1F
JAMESTOWN VA     2000   43     140/  8/ 14   N/A
DOMINION TERM VA 2000   44     140/  5/  6 1021.3F
KIPTOPEKE VA     2000      43  140/  9/ 11   N/A
CHES BAY BRIDGE  2000   41 39  110/  8/ 12 1021.2F
CAPE HENRY VA    2000   41     140/ 10/ 13 1020.5F
CHESAPEAKE LGHT  1900   41     130/ 12/ 13 1022.9F
WILLOUBY STN VA  2000   46     150/  9/ 10 1021.7F
S CRANEY ISL VA  2000          150/  8/ 11 1021.2F
CAPE HENRY BUOY  2000      42                N/A     2/ 6
1ST LANDING BUOY 2000   40     140/ 10/ 12 1021.8R
CAPE CHARLES BUO 2000      40                N/A     2/ 6   2/ 6
OFFSHORE WE BUOY 2000      43                N/A     2/ 5   2/ 5
64NM E OF VA BCH 2000   45 48  180/  8/ 10 1021.9F   4/ 6   3/ 6
DUCK PIER NC     2000   42 40  130/  6/  6 1021.5F
44100 DUCK FRF   2000      43                N/A     3/12   2/12
44056 DUCK FRF   2000      41                N/A     2/11   2/11
OREGON INLET NC  2000   46 36  170/  6/  7 1022.7F
HATTERAS NC      2000   51 47  270/  3/  7 1023.1F



USA.gov is the U.S. government's official web portal to all federal, state and local government web resources and services.